GFSNIL_sfc_rhum_000.txt.gz
RH
54 54 55 53 53 52 50 49 46 48 51 50 52 55 57 58 58 60 62 58 58 56
54 54 53 50 54 52 50 38 50 52 52 54 58 59 59 61 58 57 59 61 62 59
50 52 49 50 49 47 48 46 50 50 51 52 53 54 58 60 59 61 61 55 58 58
49 49 46 44 45 44 49 47 48 48 49 47 47 49 53 55 55 54 54 54 55 54
47 45 47 46 46 50 49 49 51 47 44 43 43 46 48 50 46 49 50 50 53 52
48 47 47 53 52 50 51 50 47 43 48 46 48 46 47 46 47 48 49 50 52 52
47 49 53 53 53 54 52 52 50 48 48 50 45 41 43 41 46 49 49 58 63 63
62 59 54 53 56 55 57 50 49 47 47 50 45 37 46 52 59 60 62 64 62 65
63 54 53 55 56 58 56 51 49 51 52 53 38 56 69 73 69 66 67 71 68 68
65 51 53 50 50 57 58 56 56 54 54 55 55 64 71 72 70 74 74 74 73 69
49 47 49 53 53 54 54 56 54 57 58 61 56 69 71 73 76 80 82 80 77 77
44 47 50 50 53 58 57 55 56 56 65 67 68 71 73 76 83 93 93 83 79 77
45 46 45 50 55 54 53 51 62 62 73 75 79 74 76 79 87 96 91 84 91 88
42 41 45 50 51 49 52 71 80 92 86 79 78 79 73 74 85 96 94 93 88 81

GFSNIL_sfc_rhum_003.txt.gz
RH
58 54 45 55 62 62 60 57 51 53 53 49 49 50 51 49 59 66 66 69 74 73
67 61 63 55 56 58 53 47 52 52 51 54 57 57 57 70 69 70 68 70 71 69
53 50 53 52 50 49 50 49 53 56 62 64 58 58 59 61 63 69 73 66 76 74
54 49 48 46 47 50 50 46 52 55 60 56 53 52 54 59 60 65 64 67 65 64
49 46 46 48 51 56 54 52 52 55 51 52 54 56 60 61 60 59 60 64 69 67
47 47 53 54 51 48 52 55 50 50 58 58 59 56 60 56 56 56 60 61 64 62
52 53 60 60 57 56 55 56 58 59 60 64 56 49 49 48 56 60 60 70 74 75
71 65 61 61 58 62 62 59 61 63 61 61 57 44 55 63 70 74 75 77 74 74
76 71 64 54 57 66 63 64 58 61 64 65 46 63 79 79 84 80 81 84 75 72
84 85 80 61 56 60 62 60 61 63 64 67 71 73 72 71 68 77 78 79 79 74
84 78 56 56 57 59 59 60 62 65 70 75 65 73 74 73 78 85 85 82 81 82
55 54 53 55 57 58 59 60 67 68 72 81 85 77 76 78 85 88 88 83 82 84
51 50 50 54 56 58 62 61 70 74 87 81 90 79 74 72 84 96 90 86 82 83
48 48 51 58 61 59 63 78 92 94 90 90 88 84 72 69 84 95 93 90 89 85

GFSNIL_sfc_rhum_006.txt.gz
RH
71 77 74 68 72 73 64 65 62 64 68 69 69 73 72 76 80 77 72 64 62 60
65 68 65 64 65 64 59 54 62 73 82 88 90 87 71 75 71 71 71 72 74 71
54 58 60 60 59 62 65 70 79 87 88 89 76 70 68 72 69 72 73 70 78 72
52 53 54 56 60 58 60 63 68 70 70 71 70 67 65 66 68 71 71 72 70 69
55 53 57 61 61 60 58 54 55 58 58 60 61 64 65 68 65 69 67 68 68 63
53 54 62 60 59 56 54 54 56 53 60 63 65 65 66 65 63 62 60 63 68 70
56 59 66 65 61 57 56 59 59 60 65 69 67 62 61 59 68 74 71 76 77 77
72 70 67 65 66 65 61 63 65 68 66 66 62 49 75 78 81 81 81 80 78 75
78 77 83 83 82 73 68 64 60 62 64 66 51 74 76 80 85 80 77 80 73 71
90 90 84 81 74 64 62 60 60 60 63 70 75 69 70 74 73 79 82 84 83 76
87 83 71 61 60 59 58 57 60 65 70 74 69 74 70 75 82 88 87 85 84 85
62 59 57 56 58 60 62 64 64 68 80 87 84 75 71 73 88 88 90 88 85 84
54 54 55 59 61 61 62 62 79 82 82 80 90 80 72 73 85 96 92 86 84 79
56 54 59 59 60 64 72 85 94 94 92 89 86 87 76 72 86 95 93 90 87 86

GFSNIL_sfc_rhum_009.txt.gz
RH
67 75 79 84 81 83 76 78 76 80 80 84 86 88 89 94 95 94 94 86 77 69
61 64 67 66 76 78 73 72 90 94 91 89 88 92 93 93 91 87 82 80 77 79
60 61 63 68 70 72 77 84 89 88 83 84 89 88 87 79 73 71 76 73 77 78
66 59 60 64 67 71 73 68 71 64 73 82 80 74 73 70 70 71 70 70 72 71
69 59 60 64 62 63 58 58 59 62 62 66 66 66 69 70 68 70 70 70 72 71
67 60 64 62 60 58 56 54 56 56 61 64 69 70 72 72 71 71 72 73 75 76
62 62 67 64 64 71 66 62 62 64 69 73 66 62 63 65 75 78 75 78 79 80
67 68 70 83 90 78 69 67 70 67 64 64 59 50 73 77 78 79 79 79 77 75
88 91 92 91 89 87 84 66 60 59 63 65 53 70 75 78 86 82 78 77 72 75
93 94 92 87 85 69 61 59 58 60 65 72 74 69 71 74 80 82 82 85 85 78
64 62 63 61 58 60 61 59 61 67 74 79 74 71 69 70 81 88 87 85 85 87
65 65 60 59 63 63 63 63 69 75 82 81 80 71 70 74 92 92 90 85 83 84
59 59 62 64 63 61 64 69 79 79 79 78 87 79 75 77 90 95 90 82 78 79
64 64 65 63 64 70 78 86 93 92 90 88 85 89 80 75 86 94 93 90 86 87

GFSNIL_sfc_rhum_012.txt.gz
RH
62 67 65 68 73 85 83 87 91 95 94 94 94 95 92 95 96 96 96 95 94 92
68 68 65 66 77 83 84 87 94 93 92 91 88 91 93 96 94 95 95 94 91 89
69 67 68 72 77 79 85 91 92 88 81 82 80 84 93 96 93 92 88 81 81 78
70 71 71 69 75 80 84 84 75 67 69 74 81 82 81 78 73 72 72 70 72 72
81 78 69 68 68 70 62 61 60 60 62 65 67 69 72 74 73 73 72 72 75 75
74 68 68 69 70 71 71 65 63 60 60 67 73 74 72 71 72 73 76 78 80 80
75 69 76 84 92 85 78 74 74 72 74 71 65 60 60 64 74 77 75 78 78 78
89 91 94 94 94 88 87 88 79 66 63 63 58 48 75 75 78 80 80 78 72 70
88 88 92 87 89 89 88 92 76 63 66 68 58 72 73 80 88 84 80 78 73 72
75 68 70 75 77 71 65 64 62 64 69 74 76 69 67 68 73 81 83 84 82 76
68 70 72 63 62 64 61 60 64 69 78 80 66 66 68 70 81 88 87 84 82 84
65 63 64 66 66 64 64 66 70 75 78 77 75 71 72 76 92 94 92 83 82 84
69 72 73 70 68 65 70 71 77 74 77 76 86 79 77 78 89 94 94 88 78 77
76 76 70 71 72 77 80 85 92 93 92 87 84 90 80 74 86 94 94 92 88 88

GFSNIL_sfc_rhum_015.txt.gz
RH
57 55 54 53 58 57 55 60 70 69 67 70 72 71 78 89 93 91 94 92 92 95
60 60 58 61 62 58 63 66 70 68 68 73 77 79 80 84 89 89 91 90 87 84
60 58 62 60 60 60 64 68 71 69 60 58 58 63 68 70 72 75 74 70 74 72
63 63 56 55 57 60 67 64 57 50 52 57 61 58 59 59 58 61 59 58 57 56
63 54 53 54 56 57 53 53 55 58 65 64 55 57 61 60 56 53 51 49 50 49
56 53 56 66 69 64 63 64 66 66 70 66 57 47 46 44 45 47 48 53 56 57
65 61 73 75 74 74 71 70 70 75 80 80 58 44 44 47 51 53 54 59 58 56
78 79 82 73 64 64 59 61 70 70 52 51 47 41 56 52 55 56 56 57 53 54
64 60 57 61 62 67 64 50 48 49 52 54 46 70 69 65 53 52 54 56 53 51
60 60 57 51 47 49 51 49 49 50 52 57 54 63 64 66 53 56 57 57 55 51
54 49 50 50 50 50 48 49 50 53 56 52 47 64 66 70 65 68 65 59 57 59
53 51 52 53 52 51 51 52 53 53 54 53 55 64 72 73 76 75 72 64 62 61
53 55 54 54 53 52 53 52 55 56 56 65 72 70 76 73 74 83 72 71 66 72
54 56 55 53 53 52 52 67 80 85 82 76 71 75 74 71 80 79 79 75 69 76

GFSNIL_sfc_rhum_018.txt.gz
RH
42 42 41 40 43 44 44 44 50 54 53 55 55 63 71 81 88 89 89 80 84 83
46 49 46 48 48 44 48 43 56 54 55 55 54 56 56 61 56 67 73 74 70 67
49 45 49 47 47 49 49 54 55 58 49 50 52 58 66 63 59 64 66 56 55 53
48 47 45 44 46 49 53 50 49 43 49 62 72 77 72 63 57 53 54 50 48 45
48 46 46 47 47 49 48 47 47 50 60 70 70 63 58 56 45 45 44 43 44 42
50 49 48 51 53 52 53 56 59 73 79 67 64 62 54 47 45 44 43 42 42 42
57 61 79 78 62 61 57 58 60 58 57 55 44 39 38 40 42 44 42 46 47 46
64 62 62 55 49 46 46 44 43 42 42 42 40 32 49 44 45 43 43 44 41 45
48 44 46 46 44 41 39 37 38 39 41 43 34 64 64 61 45 42 40 41 41 41
48 45 42 38 35 37 40 40 41 41 42 46 44 62 64 65 48 46 47 46 44 39
43 42 37 35 36 40 41 42 42 44 46 46 40 60 64 68 58 55 53 48 46 45
43 39 34 36 40 41 42 43 44 45 47 48 48 66 67 69 67 63 61 58 57 59
40 37 37 41 43 43 42 43 46 53 54 62 64 65 69 67 68 83 79 72 66 71
37 36 39 43 43 43 45 55 76 90 78 70 70 65 69 66 76 81 77 72 68 64

GFSNIL_sfc_rhum_021.txt.gz
RH
42 39 40 41 44 43 41 41 43 47 50 58 66 76 73 72 73 71 68 68 66 62
42 44 44 47 44 42 44 39 45 52 63 62 65 63 65 65 67 72 67 63 63 59
44 43 44 43 45 45 46 45 59 62 66 57 60 65 66 65 64 70 79 80 79 80
40 42 42 41 42 44 46 44 44 49 55 63 67 69 72 70 66 65 60 60 64 62
39 40 41 42 50 56 51 53 55 68 84 81 70 61 63 63 60 61 59 54 53 51
38 49 54 54 64 57 52 50 50 58 70 65 62 46 41 38 39 41 41 41 41 41
48 53 50 55 51 47 43 41 37 37 36 39 36 34 35 36 40 41 38 41 42 41
43 44 45 46 44 40 37 33 31 33 34 35 34 30 43 44 46 44 42 42 37 40
40 45 48 44 42 36 32 32 34 35 36 38 29 68 63 60 49 45 44 44 41 39
44 44 44 37 31 32 35 36 38 37 37 40 40 60 61 67 52 50 50 48 46 40
42 45 39 32 31 34 36 38 39 41 41 43 40 66 68 68 58 56 53 50 49 47
43 41 35 32 36 37 38 40 40 40 50 53 54 69 73 69 66 65 61 53 56 58
37 38 35 34 38 38 38 38 40 53 55 64 66 70 68 68 71 81 72 66 59 67
43 46 35 37 38 37 39 49 68 86 73 65 76 69 66 70 78 72 82 74 73 72

GFSNIL_sfc_rhum_024.txt.gz
RH
60 59 59 59 57 60 60 61 61 71 73 73 78 79 79 82 84 87 90 85 79 84
61 63 63 60 62 65 63 50 67 70 74 72 76 77 79 78 78 86 88 88 87 87
52 54 59 60 62 62 64 62 64 69 75 73 74 75 76 78 84 85 85 83 88 88
52 52 55 59 63 68 66 63 62 70 80 82 84 79 80 75 73 71 77 76 69 70
50 59 61 61 60 66 70 63 62 64 74 79 79 77 75 72 66 71 70 64 61 58
50 60 61 61 64 64 63 59 56 53 56 55 57 55 52 50 53 56 54 54 55 54
53 58 58 62 63 61 57 54 50 49 49 52 45 41 45 47 59 60 53 56 55 54
52 52 57 61 62 57 53 46 46 46 50 53 44 41 60 58 61 63 60 58 52 52
50 51 57 59 61 56 49 49 51 52 53 55 36 72 66 68 71 63 62 62 58 57
53 50 55 50 49 48 53 53 55 56 56 59 61 67 68 70 69 69 68 66 63 58
53 52 51 54 49 51 54 57 58 60 60 66 54 74 73 74 79 76 72 69 64 64
47 46 54 52 51 53 56 59 60 55 67 71 71 72 76 91 84 82 78 68 69 70
42 44 52 61 59 55 55 53 70 77 77 76 81 79 79 74 95 93 84 76 72 72
64 80 82 80 59 53 60 70 90 96 90 83 80 83 71 81 93 93 86 83 80 77

GFSNIL_sfc_rhum_027.txt.gz
RH
66 75 71 64 68 72 68 71 74 79 81 80 81 87 88 94 91 90 93 94 93 88
64 68 66 64 69 78 77 60 77 81 83 82 82 84 83 86 91 93 94 94 94 94
57 61 69 74 78 81 79 73 74 86 86 89 91 88 85 87 89 90 92 88 86 86
68 71 73 72 73 78 78 78 75 76 86 87 90 91 91 90 84 81 81 82 84 83
68 68 67 68 66 69 70 77 72 68 67 79 85 86 88 88 76 69 67 67 69 65
56 66 62 66 68 71 70 67 63 59 60 61 62 59 60 63 65 66 64 66 68 65
57 67 65 66 69 68 65 61 55 55 57 62 58 57 59 60 69 71 67 70 70 68
57 67 63 67 68 68 62 54 52 55 58 61 56 52 68 69 74 75 75 75 66 64
63 58 67 70 67 66 56 52 54 55 59 64 48 72 70 74 80 76 77 79 69 71
69 79 76 76 71 54 55 56 57 59 64 69 72 72 69 73 81 83 81 79 79 65
72 81 83 75 68 61 56 57 62 66 69 76 63 75 76 82 90 88 84 81 80 76
70 68 76 82 83 81 62 65 72 77 83 86 84 81 85 91 98 96 93 82 76 72
79 88 88 89 84 80 70 73 78 88 89 83 89 81 77 85 98 98 92 86 76 73
78 89 88 93 85 73 69 87 94 93 90 85 86 85 72 78 92 91 93 87 83 81

GFSNIL_sfc_rhum_030.txt.gz
RH
72 72 70 66 73 79 81 80 81 86 81 82 84 89 91 94 94 92 95 94 96 98
70 69 70 74 81 85 80 68 82 83 83 88 89 89 89 94 93 94 94 95 95 95
64 72 76 81 82 78 78 78 80 84 89 88 90 91 92 94 92 91 93 91 91 90
75 75 76 73 75 77 78 75 78 77 80 90 90 91 93 93 91 88 82 76 73 72
73 74 72 71 71 74 70 71 77 72 61 64 68 71 75 80 71 70 69 69 70 68
57 75 73 71 74 74 76 73 68 60 58 59 62 63 69 69 70 71 71 71 72 72
58 65 74 75 79 79 78 82 62 55 56 60 62 62 62 64 71 74 72 76 77 77
68 68 70 74 80 86 85 78 70 56 56 62 61 55 69 70 74 77 78 79 76 71
69 70 80 84 84 88 91 90 61 56 60 68 53 73 72 74 82 78 79 83 76 75
75 80 82 84 88 88 90 72 64 67 70 75 72 73 73 81 84 87 89 87 82 76
78 81 82 86 90 85 79 89 90 76 80 80 70 78 81 85 96 97 95 92 88 86
78 87 88 88 84 86 92 94 77 82 84 86 87 81 84 89 96 94 91 80 79 74
84 89 95 94 92 98 97 79 83 84 86 78 89 71 73 71 99 98 90 86 77 74
76 89 94 96 97 94 81 87 92 92 90 86 80 81 66 65 88 89 90 85 83 82

GFSNIL_sfc_rhum_033.txt.gz
RH
68 71 70 69 78 81 82 81 80 84 85 84 88 91 92 95 95 93 96 95 95 97
75 73 75 75 81 84 83 76 83 85 88 88 90 92 92 95 94 94 94 94 94 96
64 72 76 83 84 86 83 80 84 88 91 90 92 92 93 95 94 94 95 93 89 82
70 77 80 83 83 83 81 81 82 79 78 81 86 87 92 90 91 83 74 72 72 72
72 78 82 82 78 76 79 75 81 80 69 62 67 68 69 71 70 68 70 72 75 74
61 64 74 77 78 78 82 84 86 82 82 73 65 63 67 69 70 71 73 75 78 78
71 71 73 77 81 83 86 90 90 90 81 72 65 64 65 66 70 74 74 78 80 81
75 74 75 77 84 87 92 91 93 94 87 66 64 57 67 69 75 78 80 80 77 77
77 80 84 87 88 91 93 94 93 82 73 75 56 74 72 77 85 81 82 87 83 80
80 83 84 85 89 93 96 91 84 86 77 74 73 72 75 81 92 91 95 95 91 79
76 86 88 91 92 89 94 95 99 91 81 78 75 80 84 84 92 92 90 82 82 83
81 90 91 96 93 92 99 98 88 83 78 85 87 70 73 79 93 88 85 77 78 73
78 87 93 97 94 95 88 88 86 80 84 76 83 70 66 69 98 99 89 83 76 78
77 83 88 92 83 99 97 87 93 92 91 83 80 80 64 66 93 93 89 87 87 84

GFSNIL_sfc_rhum_036.txt.gz
RH
70 71 69 68 75 78 81 81 79 82 89 87 88 91 93 96 96 95 97 95 96 96
73 72 75 76 80 85 84 78 84 87 90 90 91 92 94 97 94 94 95 95 94 97
67 72 79 81 80 85 88 86 85 89 91 92 91 93 94 95 94 95 95 93 89 79
69 77 82 85 87 87 86 85 85 86 86 78 82 85 88 88 84 90 76 71 71 73
67 72 79 82 83 85 85 83 83 84 81 81 76 74 74 75 70 71 70 71 73 75
70 72 73 76 80 82 85 88 90 89 95 94 90 79 72 69 72 70 69 74 78 78
74 77 79 80 81 84 86 92 92 93 93 87 81 73 68 65 68 73 74 78 80 81
78 81 83 86 87 88 90 92 93 92 92 91 71 60 66 67 74 80 83 82 80 80
81 82 83 87 88 92 92 95 94 74 74 77 56 70 74 86 95 91 88 80 76 83
80 79 85 89 93 94 93 93 89 87 81 80 82 79 82 82 81 83 85 80 76 70
77 84 91 92 95 94 91 98 99 97 82 81 80 81 76 78 86 85 80 74 76 77
81 86 90 92 96 86 96 97 92 84 83 82 79 67 67 71 88 85 81 74 74 73
80 82 86 92 94 83 92 98 83 76 86 74 81 69 64 69 93 97 88 84 76 80
81 88 91 90 83 91 98 95 91 92 91 82 79 80 66 67 93 92 90 88 86 84

GFSNIL_sfc_rhum_039.txt.gz
RH
55 49 49 51 52 53 53 54 59 61 62 64 67 68 71 73 77 73 76 74 70 67
56 58 57 59 60 59 62 58 61 65 65 65 68 70 72 70 66 67 69 76 75 72
51 53 58 61 62 63 60 59 62 62 64 65 68 69 65 65 61 66 68 68 68 61
50 52 55 54 54 55 57 54 56 58 62 64 64 62 60 60 58 61 59 55 54 55
49 51 49 49 51 57 57 58 61 66 67 66 72 73 77 85 55 56 55 55 53 54
51 50 50 53 57 56 55 56 60 68 72 81 78 80 68 58 55 54 52 56 58 57
53 55 56 60 59 59 60 63 64 73 78 79 79 69 56 52 52 56 59 62 60 60
59 60 58 57 63 62 69 66 67 74 84 66 57 47 54 56 63 63 60 59 55 56
61 58 57 62 66 69 70 64 70 70 63 66 52 80 85 73 57 54 50 48 45 44
58 56 60 62 64 70 74 71 81 84 85 70 64 79 78 76 53 51 48 46 46 46
56 60 61 62 62 74 73 88 96 90 67 60 61 70 69 70 54 52 49 48 50 51
61 62 61 63 71 73 73 84 84 70 63 57 53 66 64 62 63 61 59 55 53 55
62 63 63 67 70 74 81 81 86 71 62 65 62 65 63 63 70 81 68 60 54 63
63 63 63 66 66 75 83 84 91 79 72 65 65 63 65 66 76 73 70 63 60 58

GFSNIL_sfc_rhum_042.txt.gz
RH
35 32 32 35 39 39 39 41 47 49 46 43 43 46 50 52 55 58 56 60 55 51
41 40 39 42 45 43 47 38 36 38 37 37 41 45 51 56 55 54 58 62 58 47
39 38 42 45 45 40 34 32 35 36 37 39 41 44 50 52 46 52 58 48 47 42
36 37 37 33 32 32 35 34 36 37 41 42 44 48 57 58 50 61 59 49 48 47
31 31 30 30 32 37 38 39 39 40 42 44 48 64 68 71 72 61 49 47 47 46
30 30 31 34 38 39 41 41 42 43 48 48 56 57 68 68 51 47 46 47 50 50
31 35 36 40 41 44 44 46 47 48 49 68 62 54 52 44 47 49 47 51 50 48
38 42 42 42 45 46 49 49 48 52 59 63 48 40 51 51 53 51 48 46 39 39
42 42 42 46 49 49 50 50 50 55 57 59 50 86 78 68 46 44 41 40 37 36
43 41 43 43 45 48 52 55 63 62 72 71 63 73 74 69 44 44 42 40 38 36
41 42 42 46 48 51 54 65 66 70 67 60 55 68 65 64 48 47 45 43 43 43
42 44 45 48 51 54 64 65 71 65 65 60 52 66 62 63 54 54 53 46 44 46
42 46 48 50 51 56 60 61 62 71 62 64 58 65 63 61 62 79 61 50 45 57
42 46 48 49 49 54 61 63 73 81 68 61 61 58 66 64 71 68 65 56 51 50

GFSNIL_sfc_rhum_045.txt.gz
RH
36 31 31 31 34 36 35 36 39 41 39 35 35 36 41 42 48 53 64 65 56 50
37 34 35 36 38 38 40 33 32 33 35 35 36 37 40 42 46 54 57 57 58 60
35 36 36 39 40 37 33 31 32 34 35 36 37 38 40 41 44 56 51 48 56 53
39 34 36 34 30 29 32 32 33 33 35 36 37 37 42 51 52 60 53 55 53 53
35 32 30 28 27 32 34 36 35 35 36 37 37 39 53 66 54 57 56 52 53 51
29 29 28 27 32 33 35 37 37 38 42 41 45 52 59 56 54 59 52 51 52 49
28 28 29 32 35 37 38 40 41 42 43 48 55 50 53 54 51 54 52 52 47 40
26 32 34 37 38 40 42 41 42 42 43 47 48 44 53 51 56 54 48 40 36 38
28 32 36 38 41 41 41 42 43 45 49 57 49 81 74 66 50 44 39 40 39 36
32 34 35 34 36 41 45 45 48 54 59 62 64 74 70 65 48 45 44 42 41 37
32 34 34 36 39 43 44 49 58 59 64 64 65 73 65 64 52 46 46 45 43 42
30 34 36 38 42 44 47 57 64 61 68 65 67 70 64 62 54 52 51 46 43 44
32 35 37 41 44 45 46 53 60 66 62 72 71 72 66 61 63 71 61 50 45 62
33 35 38 43 43 44 49 60 77 80 70 69 72 70 69 65 66 68 65 59 52 49

GFSNIL_sfc_rhum_048.txt.gz
RH
55 55 50 48 51 54 56 59 59 56 53 54 55 58 60 66 68 67 78 80 83 80
51 50 51 49 51 58 57 42 53 52 54 54 56 58 61 66 67 71 77 79 76 78
50 47 52 50 53 51 48 46 50 52 53 55 55 57 60 63 69 73 78 72 70 77
49 52 47 50 45 42 44 46 49 49 52 52 54 56 60 69 67 70 70 75 76 70
57 52 46 45 39 43 47 50 50 52 51 52 53 59 68 71 72 73 77 70 69 68
52 43 41 40 41 44 48 50 52 51 57 56 62 64 66 67 70 74 69 69 70 66
41 40 40 42 45 50 52 54 55 56 57 60 57 55 59 61 68 68 65 68 66 56
39 40 44 47 51 52 56 53 55 55 59 62 56 53 68 64 66 68 65 59 50 51
36 38 47 52 53 56 55 56 58 59 64 69 51 82 72 69 68 61 59 62 57 54
36 42 49 45 47 52 57 60 63 69 70 71 72 76 68 63 64 66 66 63 62 52
38 43 45 48 49 55 58 62 71 72 72 75 67 81 70 63 68 70 68 64 62 62
40 41 43 47 54 57 62 64 69 68 73 76 76 82 74 67 75 77 75 65 64 60
41 43 44 50 56 60 60 58 65 73 78 74 86 94 76 69 92 89 88 77 66 70
42 42 46 53 56 58 64 70 78 88 88 85 88 94 84 72 85 92 91 86 81 84

GFSNIL_sfc_rhum_051.txt.gz
RH
59 62 60 57 58 60 64 64 57 55 56 57 58 62 64 70 72 73 87 82 85 86
57 56 55 56 62 66 55 45 52 56 55 57 59 60 63 72 73 79 84 86 83 85
56 53 56 58 56 51 51 48 51 54 57 57 58 60 64 76 78 76 82 78 84 84
53 55 54 50 51 47 47 49 53 55 55 56 61 65 76 76 74 78 81 84 80 76
60 54 54 55 44 49 50 54 55 57 56 60 62 69 71 74 77 79 83 77 74 74
55 56 50 41 49 51 55 55 57 54 61 62 64 63 68 72 77 74 74 73 74 74
59 50 48 51 53 58 56 56 56 58 61 69 64 64 68 68 74 74 70 73 74 66
48 48 49 54 57 56 54 54 58 59 68 70 62 57 69 67 70 68 67 68 60 59
47 50 55 54 53 54 60 56 57 65 71 72 58 78 73 67 69 66 68 72 69 62
50 50 50 48 49 54 58 58 67 70 72 74 76 81 75 69 66 70 74 78 72 61
51 50 50 52 56 56 60 64 77 75 73 76 74 84 82 74 70 74 77 78 71 71
50 52 56 58 57 58 65 69 74 72 76 79 82 86 85 76 76 79 80 78 75 74
58 60 59 58 61 64 64 62 72 75 82 82 86 88 87 83 95 90 89 83 77 69
59 57 56 56 60 62 68 76 82 85 89 89 89 95 90 91 92 88 90 92 90 87

GFSNIL_sfc_rhum_054.txt.gz
RH
71 73 72 63 64 68 70 66 56 59 56 55 58 62 68 72 77 83 89 83 87 90
60 60 63 68 62 61 64 53 58 55 56 60 61 64 68 77 82 83 83 84 87 88
57 61 64 68 72 66 67 58 57 56 58 59 62 68 76 82 79 78 84 82 86 86
62 61 63 68 65 57 59 55 56 56 57 59 63 71 74 76 75 78 82 86 84 80
63 68 69 66 63 64 58 59 58 58 58 60 62 69 72 73 74 82 84 82 76 75
62 70 70 67 66 67 60 59 58 58 60 64 67 66 68 72 78 80 77 77 79 77
68 70 63 59 60 61 58 60 59 59 62 71 66 66 68 69 73 74 72 70 69 68
56 60 59 62 63 59 60 56 58 61 72 69 66 60 68 67 72 72 70 70 65 62
57 56 63 63 59 59 58 60 62 66 75 77 60 73 76 73 75 68 69 70 73 71
60 58 59 52 53 55 60 62 65 75 75 76 79 81 81 78 72 70 72 77 78 68
57 60 62 66 59 64 62 65 76 82 79 80 77 82 86 84 78 74 76 79 77 75
65 74 71 65 64 64 70 73 78 78 82 83 84 80 87 89 87 80 82 77 78 79
74 63 63 65 69 70 72 71 74 78 85 84 87 84 87 91 96 95 96 86 80 75
61 62 63 64 65 70 75 80 85 87 88 89 89 89 87 90 96 97 96 89 88 86

GFSNIL_sfc_rhum_057.txt.gz
RH
81 81 87 86 81 73 69 65 68 84 71 63 60 59 64 72 76 84 89 83 87 90
84 77 74 68 67 68 76 85 87 63 65 64 59 62 68 77 84 84 84 84 87 91
68 64 64 69 78 79 81 84 73 68 74 61 64 70 76 82 82 80 86 84 88 89
70 70 72 70 76 88 83 76 79 82 74 65 66 76 78 78 77 78 83 84 88 86
68 75 83 86 79 79 84 83 74 74 64 64 65 74 76 75 73 79 84 86 86 82
83 84 79 73 79 76 76 75 69 65 64 65 71 75 72 74 78 83 84 83 84 82
81 83 78 79 78 77 69 65 62 63 67 72 73 71 71 73 78 80 79 80 74 71
82 81 72 67 66 64 66 60 60 66 72 73 71 66 73 72 77 80 80 78 72 71
64 64 68 70 66 64 58 60 67 68 75 80 67 72 78 78 83 80 76 76 71 74
67 64 62 58 62 69 72 68 65 69 79 82 81 79 81 82 86 81 78 77 75 73
62 65 74 84 87 76 66 68 72 78 82 85 80 81 85 87 92 84 79 78 79 76
80 83 87 80 69 70 74 76 78 80 85 88 87 82 85 90 96 91 85 78 80 84
80 75 67 69 73 74 74 75 81 81 84 85 89 83 85 88 98 97 93 94 92 86
64 64 67 68 69 73 80 84 86 87 88 88 89 89 87 88 98 96 92 94 96 89

GFSNIL_sfc_rhum_060.txt.gz
RH
92 84 85 84 82 85 79 75 77 85 84 81 76 66 67 74 70 78 89 86 88 86
95 92 88 89 79 75 75 82 89 84 81 86 71 72 79 73 76 86 85 84 84 88
93 86 82 79 80 78 84 86 81 86 84 76 77 73 72 81 82 84 88 86 88 90
82 78 80 77 79 85 88 83 90 81 85 78 74 75 82 84 85 86 82 85 89 88
79 78 82 86 89 92 86 93 81 84 77 76 76 77 82 83 75 80 82 82 87 89
83 81 86 89 84 86 90 84 78 78 78 74 75 78 80 79 78 80 82 86 88 86
91 88 89 82 86 82 79 80 79 75 71 73 73 73 75 74 80 83 82 86 87 84
90 90 90 78 81 85 85 75 65 67 72 73 72 69 76 77 81 82 82 82 79 78
88 78 79 82 83 76 66 66 74 76 73 77 70 76 80 80 82 81 81 83 79 74
72 71 71 66 73 83 89 85 80 74 76 81 85 82 81 84 88 84 85 84 78 71
65 77 84 86 88 92 87 77 76 77 78 86 82 82 84 86 92 92 87 84 80 80
82 82 84 89 88 77 76 78 78 80 84 87 89 85 86 89 94 95 92 84 81 80
84 89 79 74 73 77 78 78 84 83 84 84 89 84 85 88 95 95 94 93 86 84
66 66 68 71 73 75 81 84 87 87 88 86 86 84 84 85 94 92 92 95 87 93

GFSNIL_sfc_rhum_063.txt.gz
RH
83 84 79 77 71 68 65 65 66 63 62 66 67 75 76 61 71 63 62 65 66 55
88 86 86 80 71 65 66 65 66 66 70 72 75 74 75 74 72 59 65 66 64 58
86 85 87 84 73 71 69 66 72 74 87 92 77 77 71 69 58 61 62 59 63 59
86 88 86 85 78 72 72 77 82 86 86 82 82 73 73 61 59 62 62 62 62 62
87 85 87 85 79 83 81 89 87 82 78 74 74 79 67 60 55 61 63 60 61 60
85 83 85 86 87 82 89 91 88 86 80 84 80 68 61 58 59 60 60 59 59 56
82 83 88 91 94 95 85 82 89 92 91 82 65 54 56 56 60 60 59 62 62 59
85 84 90 91 89 80 89 92 83 75 65 62 63 54 58 56 59 60 60 61 57 58
86 84 90 88 91 88 71 72 72 80 80 80 59 71 81 70 57 57 57 57 54 54
79 82 83 75 72 79 84 92 93 85 68 66 62 81 83 84 59 57 57 57 55 53
73 78 83 87 86 92 93 80 66 62 60 61 56 81 84 86 64 61 61 61 59 59
81 78 79 87 88 72 62 60 59 57 60 60 58 81 84 82 65 65 64 61 61 61
88 86 73 60 58 58 55 55 55 56 57 65 64 74 83 78 69 79 73 64 63 80
49 50 53 55 55 55 57 62 69 72 67 66 67 65 78 82 75 80 79 71 67 68

GFSNIL_sfc_rhum_069.txt.gz
RH
57 53 64 65 66 71 71 71 66 71 78 75 68 57 61 60 74 71 71 63 66 54
60 60 65 72 70 70 74 71 76 76 79 78 71 64 72 87 92 90 84 81 78 55
59 66 70 79 76 74 73 76 85 91 93 83 81 86 90 91 89 83 85 75 65 51
60 67 71 82 80 80 83 92 95 94 85 85 92 94 94 89 82 86 83 69 59 50
70 79 86 91 89 90 90 87 90 92 95 96 96 94 90 90 88 84 75 64 54 48
92 92 92 91 89 88 89 91 94 94 95 94 92 90 91 87 77 64 59 53 48 44
92 91 92 92 91 92 90 92 93 87 85 86 89 87 80 69 67 60 51 54 47 44
92 91 92 94 93 91 89 86 84 86 88 91 86 72 65 54 58 55 51 47 41 44
89 88 89 88 88 84 83 83 87 89 86 83 64 70 78 73 54 49 47 45 41 39
80 82 82 76 76 77 83 83 79 69 68 65 61 80 79 83 49 47 46 45 44 39
72 70 67 68 75 82 73 69 65 64 50 44 39 69 72 81 50 45 42 42 41 44
62 68 72 80 78 69 69 62 46 41 41 40 38 81 81 67 54 53 53 46 46 44
63 61 62 66 57 48 43 39 34 35 40 61 47 81 78 64 55 62 56 50 46 58
53 45 42 43 40 38 38 42 56 58 52 44 48 52 76 73 58 64 66 58 55 53

GFSNIL_sfc_rhum_072.txt.gz
RH
65 65 68 71 74 77 83 84 85 85 84 82 84 87 90 91 85 84 85 81 81 84
68 68 72 80 87 89 82 79 84 83 84 89 93 93 92 94 96 94 95 94 90 84
67 71 75 86 92 90 87 84 91 90 93 97 96 96 96 96 96 95 96 94 89 88
72 86 90 92 90 92 93 94 95 95 94 95 96 94 96 97 97 95 94 93 92 82
81 88 94 97 98 96 98 94 92 92 92 90 91 94 96 97 93 92 92 88 82 75
96 96 97 96 94 94 95 93 91 90 92 95 96 94 92 87 89 90 86 77 77 70
95 96 96 96 96 95 94 95 95 92 92 91 87 84 83 85 89 83 74 74 69 66
96 95 96 96 97 94 95 92 89 89 88 88 89 84 86 78 76 75 72 70 66 66
96 96 96 96 94 92 90 89 87 90 94 95 78 81 82 74 75 67 67 70 64 61
90 92 92 88 87 89 91 90 88 85 83 80 79 79 85 80 65 65 66 66 65 54
85 84 81 80 83 86 82 80 80 80 77 77 64 84 84 82 65 66 67 68 66 64
74 74 75 80 80 79 80 78 77 66 57 64 75 78 75 68 76 68 70 57 62 62
69 73 75 76 75 76 76 64 50 51 62 65 76 80 78 65 83 82 82 73 60 66
63 64 66 68 61 55 57 68 81 76 69 59 71 78 70 68 81 86 79 73 71 71

GFSNIL_sfc_rhum_075.txt.gz
RH
62 62 73 82 82 87 90 90 94 95 94 92 91 90 95 96 97 96 97 96 96 94
81 70 68 80 87 91 95 93 95 94 95 93 94 95 95 96 98 97 98 99 96 96
68 78 84 82 93 95 94 90 94 94 95 96 95 96 96 98 96 95 97 96 96 96
79 80 86 94 97 96 95 95 95 96 96 97 97 96 95 93 93 95 96 96 94 90
85 96 97 97 97 98 98 97 96 96 96 96 94 92 90 95 94 93 94 90 88 88
99 99 99 98 99 98 98 98 97 94 95 93 95 95 93 91 91 88 87 87 88 85
98 98 99 98 98 98 96 96 95 94 94 94 92 89 86 84 89 91 88 88 86 84
98 98 98 98 98 96 95 95 92 93 93 91 87 82 87 86 89 88 88 86 74 72
97 97 98 98 97 96 95 93 92 92 92 94 82 92 92 86 82 76 72 72 71 67
95 97 97 94 94 94 94 93 93 91 91 92 87 88 89 85 76 68 70 74 76 64
93 93 91 91 93 94 90 86 88 91 90 84 78 86 80 77 78 81 75 73 74 75
86 86 86 90 89 89 88 89 92 84 76 78 78 79 78 75 79 76 80 69 70 66
78 80 83 81 84 86 85 79 62 72 79 79 81 77 75 76 90 83 81 75 69 72
76 78 78 82 87 84 77 78 86 80 84 84 84 80 72 70 81 87 86 81 81 80

GFSNIL_sfc_rhum_078.txt.gz
RH
77 76 71 65 77 81 84 87 89 91 89 96 96 95 95 96 97 96 97 97 98 96
80 72 70 71 77 86 88 89 92 92 95 96 96 96 96 96 97 96 98 98 96 96
76 76 71 84 88 89 92 93 96 98 97 98 98 97 96 97 98 98 98 97 97 96
70 80 84 91 95 97 97 98 98 98 98 98 97 97 96 97 96 96 96 95 93 94
81 84 89 98 98 97 99 99 97 98 97 97 97 97 96 96 93 93 93 94 93 91
94 95 91 93 98 97 97 97 97 97 98 97 96 95 94 91 91 91 90 89 89 87
99 99 99 99 99 98 98 98 98 96 95 95 94 91 89 88 90 89 87 89 90 88
99 99 98 98 99 98 98 97 96 97 96 93 90 86 88 86 88 90 90 88 81 77
98 98 98 98 98 98 98 96 95 96 94 93 82 94 92 89 88 79 72 71 75 72
98 97 98 98 97 98 98 95 95 94 91 88 89 95 93 88 77 76 81 80 76 62
97 97 96 95 96 96 94 92 92 90 90 90 86 94 86 83 83 81 82 80 73 71
93 95 95 97 96 92 88 87 86 87 85 81 83 86 83 76 81 77 74 69 70 74
89 91 92 90 88 83 80 82 86 83 80 78 82 83 81 75 82 78 75 72 68 69
82 83 82 82 81 85 80 86 89 90 90 85 84 83 73 69 77 83 79 74 75 77

GFSNIL_sfc_rhum_081.txt.gz
RH
76 78 80 76 78 80 80 84 90 93 91 92 94 96 97 97 97 97 97 94 94 95
76 76 79 84 78 82 82 84 92 91 92 96 98 98 98 98 98 96 96 95 95 96
75 82 83 84 86 86 92 96 97 97 98 99 98 99 98 98 98 97 98 98 98 97
69 79 86 86 85 94 98 98 99 99 99 99 99 99 99 99 98 97 99 98 96 94
74 81 86 88 91 91 92 96 96 98 98 99 98 98 98 98 98 97 98 96 94 95
89 87 91 91 89 92 94 96 96 96 97 98 98 98 97 95 96 94 93 92 93 92
86 90 90 91 94 96 94 94 98 98 98 97 98 97 94 93 93 92 91 92 90 89
98 99 99 99 99 99 99 99 98 98 99 98 97 94 94 90 92 90 92 92 89 82
99 99 99 99 99 99 99 99 98 99 98 98 93 99 98 92 91 90 88 74 76 75
98 98 99 98 98 99 99 99 99 98 95 96 96 98 96 91 78 74 75 73 69 56
98 98 98 98 98 99 98 97 97 96 94 95 96 96 89 84 74 76 74 70 70 68
98 98 98 99 98 97 95 95 94 91 91 92 95 91 85 76 75 68 66 69 72 73
93 95 96 96 95 93 90 90 84 81 82 86 85 85 82 73 76 77 74 68 66 69
90 91 91 90 88 85 88 89 90 87 84 82 82 79 73 68 75 78 75 70 74 76

GFSNIL_sfc_rhum_084.txt.gz
RH
80 80 78 76 73 82 80 86 91 96 95 95 95 95 96 95 96 97 97 94 95 91
84 78 77 83 91 93 92 91 92 94 95 96 97 97 97 97 98 98 97 97 95 91
80 81 81 89 92 90 92 92 94 95 96 97 98 98 99 99 99 99 99 99 97 96
74 79 80 83 85 89 91 89 92 94 96 98 98 99 98 99 98 99 98 99 97 97
73 75 80 85 86 86 91 89 91 93 95 96 97 98 98 98 98 98 98 98 98 97
77 80 80 81 86 90 92 90 94 95 96 96 98 98 98 98 98 98 97 98 97 96
83 83 86 90 93 96 94 92 95 95 94 97 98 98 99 98 98 98 96 95 94 94
85 91 94 98 97 97 95 95 93 98 99 99 99 98 98 96 97 97 97 96 92 90
99 99 99 99 99 99 99 99 99 99 99 99 99 100 99 97 96 94 95 90 88 84
99 99 99 99 99 99 99 99 99 99 99 99 98 99 99 98 95 91 89 84 72 62
99 99 99 99 99 99 99 99 98 99 98 98 97 96 92 87 78 80 79 75 71 75
99 99 99 99 99 99 98 98 97 96 98 97 97 93 89 79 77 76 76 69 68 67
97 98 98 97 97 96 93 93 90 92 92 94 94 91 85 75 74 73 68 62 64 71
92 94 94 94 93 93 92 90 93 92 88 84 84 82 76 72 75 75 71 63 66 67